CW3077 Weather Reports


Display with metric or nautical units.
time (UTC)temp
F
wind
direction
speed
MPH
gust
MPH
rain 1hr
in
rain 24hr
in
rain mn
in
humidity
%
barometer
mb
20220529090516 72 263 3.0 9.0 0.00 0.00 0.00 91 1008.6
20220529090016 72 240 2.0 8.0 0.00 0.00 0.00 91 1008.6
20220529085516 72 240 3.0 9.0 0.00 0.00 0.00 91 1008.5
20220529085015 72 240 2.0 7.0 0.00 0.00 0.00 91 1008.4
20220529084516 72 240 3.0 9.0 0.00 0.00 0.00 91 1008.5
20220529084016 72 218 3.0 8.0 0.00 0.00 0.00 91 1008.4
20220529083516 72 240 3.0 8.0 0.00 0.00 0.00 91 1008.6
20220529083016 72 218 3.0 8.0 0.00 0.00 0.00 91 1008.6
20220529082515 72 240 3.0 11.0 0.00 0.00 0.00 90 1008.5
20220529082016 72 240 2.0 8.0 0.00 0.00 0.00 90 1008.4
20220529081515 73 218 2.0 7.0 0.00 0.00 0.00 90 1008.4
20220529081016 73 218 3.0 9.0 0.00 0.00 0.00 89 1008.6
20220529080516 73 240 3.0 8.0 0.00 0.00 0.00 89 1008.6
20220529080016 73 240 4.0 9.0 0.00 0.00 0.00 89 1008.6
20220529075515 73 218 3.0 10.0 0.00 0.00 0.00 89 1008.6
20220529075015 73 240 4.0 13.0 0.00 0.00 0.00 88 1008.6
20220529074515 74 240 3.0 8.0 0.00 0.00 0.00 88 1008.5
20220529074015 74 263 3.0 9.0 0.00 0.00 0.00 88 1008.6
20220529073515 74 240 5.0 14.0 0.00 0.00 0.00 86 1008.6
20220529073015 74 240 5.0 13.0 0.00 0.00 0.00 86 1008.6
20220529072515 74 240 5.0 12.0 0.00 0.00 0.00 86 1008.6
20220529072015 74 240 5.0 12.0 0.00 0.00 0.00 86 1008.6
20220529071516 74 240 4.0 14.0 0.00 0.00 0.00 86 1008.7
20220529071016 75 240 4.0 12.0 0.00 0.00 0.00 86 1008.7
20220529070515 75 240 4.0 11.0 0.00 0.00 0.00 85 1008.9
20220529070015 75 263 4.0 11.0 0.00 0.00 0.00 85 1008.9
20220529065516 75 240 4.0 10.0 0.00 0.00 0.00 84 1009.1
20220529065016 75 218 4.0 10.0 0.00 0.00 0.00 84 1009.2
20220529064515 75 218 3.0 11.0 0.00 0.00 0.00 83 1009.2
20220529064015 76 240 4.0 9.0 0.00 0.00 0.00 83 1009.2
20220529063516 76 240 4.0 13.0 0.00 0.00 0.00 82 1009.3
20220529063016 76 240 6.0 11.0 0.00 0.00 0.00 81 1009.4
20220529062517 76 263 5.0 12.0 0.00 0.00 0.00 81 1009.5
20220529062015 76 240 4.0 11.0 0.00 0.00 0.00 80 1009.5
20220529061516 76 240 5.0 14.0 0.00 0.00 0.00 79 1009.7
20220529061016 77 240 5.0 12.0 0.00 0.00 0.00 78 1009.9
20220529060515 77 218 5.0 14.0 0.00 0.00 0.00 78 1010.0
20220529060016 77 263 5.0 15.0 0.00 0.00 0.00 77 1009.9
20220529055516 77 263 4.0 12.0 0.00 0.00 0.00 76 1009.9
20220529055015 77 240 5.0 12.0 0.00 0.00 0.00 75 1009.9
20220529054515 78 240 3.0 11.0 0.00 0.00 0.00 74 1009.9
20220529054015 78 240 5.0 10.0 0.00 0.00 0.00 74 1010.0
20220529053515 78 240 5.0 12.0 0.00 0.00 0.00 73 1009.9
20220529053015 78 240 6.0 13.0 0.00 0.00 0.00 72 1010.1
20220529052516 78 263 5.0 13.0 0.00 0.00 0.00 72 1010.1
20220529052015 79 218 6.0 14.0 0.00 0.00 0.00 71 1009.9
20220529051517 79 218 5.0 12.0 0.00 0.00 0.00 71 1010.0
20220529051015 79 240 5.0 13.0 0.00 0.00 0.00 70 1010.0
20220529050515 79 218 5.0 13.0 0.00 0.00 0.00 68 1009.9
20220529050015 79 240 5.0 18.0 0.00 0.00 0.00 67 1009.9
20220529045516 80 240 4.0 13.0 0.00 0.00 0.00 66 1010.0
20220529045016 80 240 5.0 14.0 0.00 0.00 0.00 64 1009.9
20220529044516 80 240 5.0 16.0 0.00 0.00 0.00 63 1010.0
20220529044016 80 218 5.0 13.0 0.00 0.00 0.00 60 1009.7
20220529043516 81 240 6.0 14.0 0.00 0.00 0.00 60 1009.7
20220529043016 81 240 5.0 12.0 0.00 0.00 0.00 59 1009.8
20220529042516 81 240 6.0 12.0 0.00 0.00 0.00 58 1009.7
20220529042016 81 263 6.0 17.0 0.00 0.00 0.00 58 1009.7
20220529041516 82 263 6.0 14.0 0.00 0.00 0.00 56 1009.6
20220529041016 82 218 6.0 15.0 0.00 0.00 0.00 55 1009.7
20220529040516 82 240 6.0 15.0 0.00 0.00 0.00 54 1009.6
20220529040016 82 240 5.0 11.0 0.00 0.00 0.00 53 1009.5
20220529035516 82 240 5.0 13.0 0.00 0.00 0.00 53 1009.5
20220529035015 83 218 5.0 13.0 0.00 0.00 0.00 52 1009.7
20220529034516 83 263 5.0 13.0 0.00 0.00 0.00 51 1009.7
20220529034016 83 218 4.0 15.0 0.00 0.00 0.00 51 1009.6
20220529033516 83 218 6.0 12.0 0.00 0.00 0.00 51 1009.6
20220529033016 83 218 5.0 12.0 0.00 0.00 0.00 50 1009.5
20220529032516 84 218 6.0 18.0 0.00 0.00 0.00 50 1009.6
20220529032016 84 218 6.0 12.0 0.00 0.00 0.00 49 1009.5
20220529031516 84 240 6.0 16.0 0.00 0.00 0.00 49 1009.6
20220529031016 84 218 5.0 11.0 0.00 0.00 0.00 49 1009.4
20220529030516 84 240 5.0 16.0 0.00 0.00 0.00 50 1009.4
20220529030016 85 240 6.0 16.0 0.00 0.00 0.00 49 1009.4
20220529025516 85 240 5.0 16.0 0.00 0.00 0.00 49 1009.4
20220529025016 85 218 5.0 12.0 0.00 0.00 0.00 49 1009.2
20220529024516 85 240 5.0 12.0 0.00 0.00 0.00 50 1009.1
20220529024016 85 240 6.0 12.0 0.00 0.00 0.00 50 1009.1
20220529023516 85 218 5.0 13.0 0.00 0.00 0.00 50 1009.1
20220529023017 85 218 4.0 10.0 0.00 0.00 0.00 51 1008.9
20220529022516 85 218 3.0 8.0 0.00 0.00 0.00 51 1008.8
20220529022015 85 240 4.0 12.0 0.00 0.00 0.00 51 1008.8
20220529021516 85 195 3.0 10.0 0.00 0.00 0.00 51 1008.8
20220529021015 85 218 3.0 9.0 0.00 0.00 0.00 51 1008.7
20220529020515 86 195 3.0 9.0 0.00 0.00 0.00 51 1008.6
20220529020015 86 195 4.0 9.0 0.00 0.00 0.00 51 1008.5
20220529015515 86 195 3.0 7.0 0.00 0.00 0.00 50 1008.5
20220529015015 86 195 3.0 8.0 0.00 0.00 0.00 50 1008.6
20220529014516 86 195 2.0 7.0 0.00 0.00 0.00 49 1008.5
20220529014015 86 195 3.0 9.0 0.00 0.00 0.00 47 1008.6
20220529013516 87 195 2.0 5.0 0.00 0.00 0.00 46 1008.5
20220529013015 87 195 2.0 6.0 0.00 0.00 0.00 44 1008.5
20220529012515 87 218 3.0 7.0 0.00 0.00 0.00 43 1008.6
20220529012015 88 240 2.0 7.0 0.00 0.00 0.00 43 1008.6
20220529011516 88 218 3.0 7.0 0.00 0.00 0.00 42 1008.7
20220529011015 88 240 3.0 10.0 0.00 0.00 0.00 42 1008.5
20220529010515 88 263 4.0 11.0 0.00 0.00 0.00 43 1008.5
20220529010015 89 240 5.0 12.0 0.00 0.00 0.00 41 1008.6
20220529005516 89 240 4.0 13.0 0.00 0.00 0.00 41 1008.6
20220529005016 89 218 5.0 11.0 0.00 0.00 0.00 41 1008.5
20220529004515 89 240 4.0 15.0 0.00 0.00 0.00 42 1008.5
20220529004015 89 240 5.0 12.0 0.00 0.00 0.00 42 1008.5
20220529003515 89 263 5.0 14.0 0.00 0.00 0.00 40 1008.5
20220529003015 90 240 5.0 11.0 0.00 0.00 0.00 41 1008.4
20220529002516 90 240 6.0 18.0 0.00 0.00 0.00 40 1008.5
20220529002015 90 218 7.0 16.0 0.00 0.00 0.00 40 1008.5
20220529001515 90 240 7.0 15.0 0.00 0.00 0.00 40 1008.4
20220529001016 90 218 7.0 16.0 0.00 0.00 0.00 40 1008.4
20220529000515 90 218 7.0 14.0 0.00 0.00 0.00 41 1008.4
20220529000015 90 218 6.0 15.0 0.00 0.00 0.00 41 1008.4
20220528235516 90 240 6.0 15.0 0.00 0.00 0.00 42 1008.4
20220528235015 91 195 8.0 18.0 0.00 0.00 0.00 41 1008.3
20220528234516 91 240 6.0 16.0 0.00 0.00 0.00 42 1008.4
20220528234015 91 218 6.0 16.0 0.00 0.00 0.00 42 1008.6
20220528233515 91 240 7.0 15.0 0.00 0.00 0.00 42 1008.6
20220528233015 91 240 6.0 14.0 0.00 0.00 0.00 43 1008.8
20220528232515 91 218 5.0 11.0 0.00 0.00 0.00 41 1008.7
20220528232016 91 240 5.0 15.0 0.00 0.00 0.00 42 1008.8
20220528231518 91 240 5.0 13.0 0.00 0.00 0.00 42 1008.9
20220528231016 91 240 6.0 13.0 0.00 0.00 0.00 41 1008.9
20220528230515 91 240 6.0 16.0 0.00 0.00 0.00 41 1009.0
20220528230015 91 240 3.0 8.0 0.00 0.00 0.00 42 1009.0
20220528225515 91 263 4.0 11.0 0.00 0.00 0.00 41 1009.1
20220528225016 91 240 6.0 16.0 0.00 0.00 0.00 40 1009.0
20220528224515 92 263 6.0 15.0 0.00 0.00 0.00 40 1009.1
20220528224015 91 240 5.0 16.0 0.00 0.00 0.00 41 1009.2
20220528223515 91 263 5.0 15.0 0.00 0.00 0.00 39 1009.2
20220528223015 92 240 5.0 15.0 0.00 0.00 0.00 40 1009.2
20220528222515 92 240 5.0 15.0 0.00 0.00 0.00 40 1009.4
20220528222015 92 263 7.0 13.0 0.00 0.00 0.00 41 1009.4
20220528221515 92 263 7.0 18.0 0.00 0.00 0.00 40 1009.4
20220528221015 92 240 6.0 13.0 0.00 0.00 0.00 40 1009.5
20220528220515 92 240 6.0 13.0 0.00 0.00 0.00 41 1009.5
20220528220015 92 218 5.0 19.0 0.00 0.00 0.00 41 1009.7
20220528215515 92 218 5.0 11.0 0.00 0.00 0.00 40 1009.8
20220528215015 92 240 7.0 18.0 0.00 0.00 0.00 40 1009.8
20220528214515 92 240 5.0 16.0 0.00 0.00 0.00 40 1010.0
20220528214015 92 240 4.0 11.0 0.00 0.00 0.00 43 1010.0
20220528213515 92 218 4.0 15.0 0.00 0.00 0.00 42 1010.1
20220528213015 92 240 6.0 15.0 0.00 0.00 0.00 40 1010.3
20220528212515 92 240 6.0 17.0 0.00 0.00 0.00 40 1010.2
20220528212015 92 218 6.0 15.0 0.00 0.00 0.00 41 1010.3
20220528211515 93 218 6.0 18.0 0.00 0.00 0.00 39 1010.7
20220528211015 93 218 5.0 18.0 0.00 0.00 0.00 40 1010.6
20220528210515 92 240 5.0 15.0 0.00 0.00 0.00 40 1010.7
20220528210015 92 218 8.0 16.0 0.00 0.00 0.00 38 1010.9
20220528205515 92 240 4.0 14.0 0.00 0.00 0.00 40 1010.9
20220528205015 92 263 6.0 14.0 0.00 0.00 0.00 40 1011.1
20220528204515 92 218 5.0 13.0 0.00 0.00 0.00 42 1011.2
20220528204015 92 263 5.0 10.0 0.00 0.00 0.00 40 1011.4
20220528203515 92 263 6.0 13.0 0.00 0.00 0.00 40 1011.5
20220528203015 93 240 6.0 14.0 0.00 0.00 0.00 40 1011.5
20220528202515 93 263 6.0 11.0 0.00 0.00 0.00 39 1011.5
20220528202016 94 240 6.0 12.0 0.00 0.00 0.00 40 1011.6
20220528201515 93 263 6.0 14.0 0.00 0.00 0.00 41 1011.9
20220528201015 94 218 7.0 16.0 0.00 0.00 0.00 39 1011.9
20220528200515 93 240 5.0 16.0 0.00 0.00 0.00 43 1012.0
20220528200017 92 240 5.0 12.0 0.00 0.00 0.00 43 1012.1
20220528195515 93 240 7.0 17.0 0.00 0.00 0.00 40 1012.3
20220528195017 92 263 5.0 12.0 0.00 0.00 0.00 43 1012.3
20220528194517 91 240 6.0 12.0 0.00 0.00 0.00 42 1012.4
20220528194017 92 240 5.0 12.0 0.00 0.00 0.00 41 1012.4
20220528193517 92 240 6.0 12.0 0.00 0.00 0.00 43 1012.5
20220528193017 92 240 5.0 10.0 0.00 0.00 0.00 43 1012.7
20220528192518 92 263 6.0 13.0 0.00 0.00 0.00 43 1012.8
20220528192017 92 263 6.0 16.0 0.00 0.00 0.00 43 1012.9
20220528191517 92 285 5.0 12.0 0.00 0.00 0.00 45 1012.8
20220528191017 92 240 5.0 14.0 0.00 0.00 0.00 45 1012.9
20220528190517 91 218 5.0 13.0 0.00 0.00 0.00 47 1013.2
20220528190017 90 240 6.0 16.0 0.00 0.00 0.00 46 1013.1
20220528185517 90 263 7.0 16.0 0.00 0.00 0.00 45 1013.3
20220528185015 91 240 5.0 15.0 0.00 0.00 0.00 45 1013.3
20220528184517 90 240 6.0 17.0 0.00 0.00 0.00 45 1013.3
20220528184017 90 218 4.0 11.0 0.00 0.00 0.00 49 1013.4
20220528183517 91 218 5.0 12.0 0.00 0.00 0.00 50 1013.4
20220528183017 89 218 6.0 11.0 0.00 0.00 0.00 52 1013.5
20220528182517 89 263 5.0 13.0 0.00 0.00 0.00 54 1013.5
20220528182016 89 263 4.0 10.0 0.00 0.00 0.00 50 1013.6
20220528181517 89 218 4.0 11.0 0.00 0.00 0.00 52 1013.6
20220528181017 89 218 5.0 13.0 0.00 0.00 0.00 50 1013.7
20220528180517 91 218 5.0 12.0 0.00 0.00 0.00 52 1013.9
20220528180017 89 218 6.0 14.0 0.00 0.00 0.00 52 1013.8
20220528175516 90 195 5.0 14.0 0.00 0.00 0.00 50 1014.0
20220528175016 89 218 6.0 10.0 0.00 0.00 0.00 51 1014.1
20220528174517 89 218 5.0 15.0 0.00 0.00 0.00 55 1014.1
20220528174017 88 218 5.0 12.0 0.00 0.00 0.00 54 1014.0
20220528173516 87 240 4.0 13.0 0.00 0.00 0.00 57 1014.2
20220528173017 87 263 6.0 18.0 0.00 0.00 0.00 54 1014.1
20220528172516 88 240 5.0 14.0 0.00 0.00 0.00 53 1014.4
20220528172017 89 240 4.0 12.0 0.00 0.00 0.00 59 1014.3
20220528171519 88 240 6.0 13.0 0.00 0.00 0.00 55 1014.5
20220528171016 87 240 6.0 14.0 0.00 0.00 0.00 56 1014.5
20220528170516 86 218 4.0 11.0 0.00 0.00 0.00 58 1014.5
20220528170017 86 285 4.0 13.0 0.00 0.00 0.00 59 1014.6
20220528165517 87 218 6.0 13.0 0.00 0.00 0.00 58 1014.8
20220528165017 86 240 4.0 12.0 0.00 0.00 0.00 63 1014.7
20220528164516 86 195 5.0 12.0 0.00 0.00 0.00 62 1014.7
20220528164017 85 240 4.0 10.0 0.00 0.00 0.00 64 1014.7
20220528163517 85 240 5.0 11.0 0.00 0.00 0.00 63 1014.7
20220528163016 85 240 5.0 14.0 0.00 0.00 0.00 65 1014.7
20220528162517 84 263 5.0 12.0 0.00 0.00 0.00 64 1014.7
20220528162016 85 240 7.0 13.0 0.00 0.00 0.00 62 1014.8
20220528161516 85 218 6.0 16.0 0.00 0.00 0.00 64 1014.7
20220528161017 84 263 4.0 17.0 0.00 0.00 0.00 66 1014.6
20220528160517 83 263 6.0 16.0 0.00 0.00 0.00 66 1014.6
20220528160016 83 240 6.0 13.0 0.00 0.00 0.00 66 1014.6
20220528155517 83 218 5.0 12.0 0.00 0.00 0.00 67 1014.6
20220528155016 83 240 6.0 11.0 0.00 0.00 0.00 68 1014.7
20220528154517 83 240 4.0 13.0 0.00 0.00 0.00 68 1014.7
20220528154017 83 240 5.0 11.0 0.00 0.00 0.00 70 1014.8
20220528153517 83 218 4.0 11.0 0.00 0.00 0.00 71 1014.7
20220528153016 82 240 4.0 11.0 0.00 0.00 0.00 73 1014.9
20220528152516 81 173 4.0 11.0 0.00 0.00 0.00 74 1015.0
20220528152016 81 285 5.0 11.0 0.00 0.00 0.00 74 1014.9
20220528151516 81 263 4.0 10.0 0.00 0.00 0.00 73 1014.9
20220528151016 80 218 5.0 10.0 0.00 0.00 0.00 75 1015.1
20220528150516 80 240 3.0 8.0 0.00 0.00 0.00 76 1015.1
20220528150016 79 285 4.0 10.0 0.00 0.00 0.00 75 1015.1
20220528145516 79 240 4.0 10.0 0.00 0.00 0.00 78 1015.1
20220528145017 78 263 3.0 12.0 0.00 0.00 0.00 79 1015.0
20220528144516 78 285 4.0 9.0 0.00 0.00 0.00 79 1015.0
20220528144016 77 240 5.0 13.0 0.00 0.00 0.00 80 1014.9
20220528143516 77 263 4.0 11.0 0.00 0.00 0.00 81 1014.8
20220528143016 76 263 5.0 12.0 0.00 0.00 0.00 82 1014.9
20220528142516 76 263 5.0 14.0 0.00 0.00 0.00 83 1014.8
20220528142016 76 263 5.0 13.0 0.00 0.00 0.00 82 1014.9
20220528141516 76 263 6.0 15.0 0.00 0.00 0.00 83 1015.0
20220528141016 76 263 3.0 10.0 0.00 0.00 0.00 84 1015.0
20220528140516 76 263 5.0 14.0 0.00 0.00 0.00 85 1014.8
20220528140016 75 240 4.0 12.0 0.00 0.00 0.00 88 1014.8
20220528135517 75 263 4.0 13.0 0.00 0.00 0.00 88 1014.6
20220528135016 75 240 4.0 12.0 0.00 0.00 0.00 89 1014.7
20220528134516 74 240 5.0 12.0 0.00 0.00 0.00 90 1014.7
20220528134016 74 240 4.0 13.0 0.00 0.00 0.00 91 1014.7
20220528133517 74 263 4.0 9.0 0.00 0.00 0.00 91 1014.9
20220528133016 73 263 4.0 9.0 0.00 0.00 0.00 92 1014.7
20220528132516 73 263 5.0 11.0 0.00 0.00 0.00 92 1014.8
20220528132016 73 263 5.0 11.0 0.00 0.00 0.00 92 1014.7
20220528131516 73 240 4.0 9.0 0.00 0.00 0.00 92 1014.5
20220528131016 73 218 3.0 11.0 0.00 0.00 0.00 92 1014.7
20220528130516 73 240 3.0 9.0 0.00 0.00 0.00 92 1014.6
20220528130016 73 240 3.0 11.0 0.00 0.00 0.00 92 1014.6
20220528125516 72 240 4.0 10.0 0.00 0.00 0.00 92 1014.5
20220528125016 72 218 4.0 10.0 0.00 0.00 0.00 92 1014.5
20220528124516 72 240 3.0 9.0 0.00 0.00 0.00 92 1014.6
20220528124016 72 240 5.0 10.0 0.00 0.00 0.00 92 1014.5
20220528123516 72 240 4.0 9.0 0.00 0.00 0.00 92 1014.5
20220528123016 71 263 4.0 9.0 0.00 0.00 0.00 92 1014.4
20220528122516 71 240 3.0 8.0 0.00 0.00 0.00 92 1014.4
20220528122016 71 240 3.0 8.0 0.00 0.00 0.00 91 1014.3
20220528121516 71 240 2.0 6.0 0.00 0.00 0.00 91 1014.2
20220528121016 71 240 2.0 6.0 0.00 0.00 0.00 91 1014.2
20220528120516 71 240 3.0 8.0 0.00 0.00 0.00 91 1014.1
20220528120016 71 218 3.0 7.0 0.00 0.00 0.00 91 1014.0
20220528115517 71 240 3.0 7.0 0.00 0.00 0.00 91 1014.0
20220528115016 70 263 3.0 7.0 0.00 0.00 0.00 91 1013.9
20220528114517 70 240 2.0 7.0 0.00 0.00 0.00 91 1013.8
20220528114016 70 240 3.0 7.0 0.00 0.00 0.00 91 1013.8
20220528113516 70 218 2.0 7.0 0.00 0.00 0.00 91 1013.8
20220528113016 70 218 2.0 6.0 0.00 0.00 0.00 90 1013.6
20220528112516 70 218 3.0 7.0 0.00 0.00 0.00 90 1013.5
20220528112016 70 218 2.0 6.0 0.00 0.00 0.00 90 1013.5
20220528111518 70 240 2.0 7.0 0.00 0.00 0.00 90 1013.5
20220528111016 70 240 2.0 6.0 0.00 0.00 0.00 90 1013.5
20220528110516 70 240 2.0 6.0 0.00 0.00 0.00 89 1013.5
20220528110016 70 240 2.0 4.0 0.00 0.00 0.00 89 1013.6
20220528105516 70 240 3.0 9.0 0.00 0.00 0.00 89 1013.7
20220528105016 70 240 2.0 7.0 0.00 0.00 0.00 89 1013.7
20220528104516 70 240 3.0 7.0 0.00 0.00 0.00 89 1013.7
20220528104018 69 240 2.0 6.0 0.00 0.00 0.00 89 1013.7
20220528103516 69 240 2.0 4.0 0.00 0.00 0.00 89 1013.8
20220528103016 69 218 2.0 6.0 0.00 0.00 0.00 89 1013.7
20220528102516 68 218 2.0 3.0 0.00 0.00 0.00 88 1013.8
20220528102016 68 218 1.0 3.0 0.00 0.00 0.00 88 1013.9
20220528101516 68 0.0 2.0 0.00 0.00 0.00 86 1013.9
20220528101016 69 0.0 1.0 0.00 0.00 0.00 86 1014.0
20220528100516 69 0.0 1.0 0.00 0.00 0.00 86 1013.9
20220528100016 69 0.0 1.0 0.00 0.00 0.00 85 1013.9
20220528095516 69 0.0 1.0 0.00 0.00 0.00 84 1013.8
20220528095015 69 0.0 0.0 0.00 0.00 0.00 84 1013.9
20220528094516 69 0.0 1.0 0.00 0.00 0.00 84 1014.0
20220528094016 69 0.0 2.0 0.00 0.00 0.00 84 1014.0
20220528093516 69 0.0 1.0 0.00 0.00 0.00 84 1014.0
20220528093016 69 0.0 0.0 0.00 0.00 0.00 83 1013.9
20220528092515 69 0.0 0.0 0.00 0.00 0.00 83 1013.8
20220528092016 70 0.0 1.0 0.00 0.00 0.00 83 1013.8
20220528091516 70 0.0 0.0 0.00 0.00 0.00 82 1013.9
20220528091015 70 0.0 1.0 0.00 0.00 0.00 81 1013.9